Overview Statistics Trail Chart Weather Telemetry Raw packets
 

This is the latest recevied weather packets stored in our database for station/object N8TWM-13. If no packets are shown the sender has not sent any weather packets the latest 10 day(s).

<< 21 22 23 24 25 26 27 >>
Time Temp. Humidity Pressure Rain* Wind** Luminosity Snow
1788464393 34.44° C 62% 1015.2 hPa 0 mm - 638 W/m² -
1788464089 33.33° C 63% 1015.1 hPa 0 mm - 617 W/m² -
1788463784 32.78° C 63% 1015.3 hPa 0 mm - 629 W/m² -
1788463481 33.33° C 65% 1015.4 hPa 0 mm - 624 W/m² -
1788463175 33.33° C 62% 1015.5 hPa 0 mm - 609 W/m² -
1788462872 33.33° C 63% 1015.7 hPa 0 mm - 168 W/m² -
1788462571 33.89° C 60% 1015.6 hPa 0 mm - 574 W/m² -
1788462271 33.89° C 61% 1015.8 hPa 0 mm - 575 W/m² -
1788461965 33.89° C 59% 1015.8 hPa 0 mm - 599 W/m² -
1788461661 33.33° C 62% 1016.2 hPa 0 mm - 619 W/m² -
1788461356 33.33° C 62% 1016.5 hPa 0 mm - 603 W/m² -
1788461053 32.78° C 62% 1016.2 hPa 0 mm - 565 W/m² -
1788460753 33.33° C 61% 1016.5 hPa 0 mm - 628 W/m² -
1788460447 33.89° C 61% 1016.5 hPa 0 mm - 603 W/m² -
1788460147 33.89° C 62% 1016.3 hPa 0 mm - 606 W/m² -
1788459845 33.89° C 61% 1016.3 hPa 0 mm - 629 W/m² -
1788459541 33.89° C 62% 1016.2 hPa 0 mm - 629 W/m² -
1788459235 33.33° C 63% 1016.2 hPa 0 mm - 609 W/m² -
1788458935 33.33° C 61% 1016.3 hPa 0 mm - 623 W/m² -
1788458629 33.33° C 61% 1016.5 hPa 0 mm - 628 W/m² -
1788458329 33.33° C 61% 1016.2 hPa 0 mm - 630 W/m² -
1788458023 33.89° C 62% 1016.4 hPa 0 mm - 627 W/m² -
1788457717 33.33° C 61% 1016.5 hPa 0 mm - 181 W/m² -
1788457413 33.33° C 63% 1016.5 hPa 0 mm - 119 W/m² -
1788457107 32.78° C 64% 1016.9 hPa 0 mm - 121 W/m² -

* Rain latest hour (hover to see other rain measurements)
** Current wind speed in m/s (hover to see current wind gust speed)